• In Hungary
  • List of Countries
  • For 7 days
  • Water Temperature
  • Satellite Maps
  • Weather Map
  • News
  • Weather Widgets
  • user-avatar
    Login

    Hourly Weather Wetteren

    Today, 17 February, Saturday

    Time Temperature Precipitation Wind Pressure Humidity
    00:00 +3°C° 0 mm 2 mps 767 mmHg 79%
    01:00 +3°C° 0 mm 2 mps 766 mmHg 79%
    02:00 +3°C° 0 mm 2 mps 766 mmHg 80%
    03:00 +3°C° 0 mm 2 mps 766 mmHg 80%
    04:00 +2°C° 0 mm 2 mps 765 mmHg 80%
    05:00 +2°C° 0 mm 2 mps 765 mmHg 81%
    06:00 +1°C° 0 mm 3 mps 765 mmHg 82%
    07:00 +2°C° 0 mm 3 mps 765 mmHg 80%
    08:00 +2°C° 0 mm 3 mps 765 mmHg 78%
    09:00 +3°C° 0 mm 3 mps 765 mmHg 77%
    10:00 +4°C° 0 mm 3 mps 765 mmHg 71%
    11:00 +5°C° 0 mm 3 mps 765 mmHg 64%
    12:00 +7°C° 0 mm 2 mps 765 mmHg 57%
    13:00 +7°C° 0 mm 2 mps 765 mmHg 55%
    14:00 +8°C° 0 mm 2 mps 765 mmHg 52%
    15:00 +9°C° 0 mm 1 mps 765 mmHg 50%
    16:00 +8°C° 0 mm 1 mps 765 mmHg 55%
    17:00 +6°C° 0 mm 1 mps 766 mmHg 61%
    18:00 +5°C° 0 mm 1 mps 766 mmHg 66%
    19:00 +4°C° 0 mm 1 mps 766 mmHg 68%
    20:00 +4°C° 0 mm 1 mps 767 mmHg 71%
    21:00 +2°C° 0 mm 2 mps 767 mmHg 73%
    22:00 +2°C° 0 mm 2 mps 767 mmHg 75%
    23:00 +2°C° 0 mm 2 mps 767 mmHg 76%

    Tomorrow, 18 February, Sunday

    Time Temperature Precipitation Wind Pressure Humidity
    00:00 +1°C° 0 mm 2 mps 767 mmHg 78%
    01:00 +1°C° 0 mm 2 mps 768 mmHg 79%
    02:00 +1°C° 0 mm 2 mps 768 mmHg 80%
    03:00 +1°C° 0 mm 2 mps 768 mmHg 81%
    04:00 +1°C° 0 mm 2 mps 768 mmHg 83%
    05:00 +1°C° 0 mm 2 mps 768 mmHg 84%
    06:00 -1°C° 0 mm 2 mps 768 mmHg 85%
    07:00 +1°C° 0 mm 2 mps 768 mmHg 82%
    08:00 +2°C° 0 mm 2 mps 768 mmHg 79%
    09:00 +2°C° 0 mm 3 mps 768 mmHg 76%
    10:00 +4°C° 0 mm 3 mps 768 mmHg 70%
    11:00 +5°C° 0 mm 3 mps 768 mmHg 65%
    12:00 +7°C° 0 mm 2 mps 768 mmHg 59%
    13:00 +8°C° 0 mm 2 mps 767 mmHg 58%
    14:00 +8°C° 0 mm 2 mps 767 mmHg 56%
    15:00 +8°C° 0 mm 2 mps 766 mmHg 55%
    16:00 +7°C° 0 mm 2 mps 767 mmHg 60%
    17:00 +6°C° 0 mm 2 mps 767 mmHg 66%
    18:00 +4°C° 0 mm 2 mps 767 mmHg 71%
    19:00 +4°C° 0 mm 2 mps 767 mmHg 73%
    20:00 +4°C° 0 mm 2 mps 767 mmHg 75%
    21:00 +3°C° 0 mm 2 mps 767 mmHg 77%
    22:00 +3°C° 0 mm 2 mps 766 mmHg 78%
    23:00 +2°C° 0 mm 3 mps 766 mmHg 79%

    Day after tomorrow, 19 February, Monday

    Time Temperature Precipitation Wind Pressure Humidity
    00:00 +1°C° 0 mm 3 mps 766 mmHg 80%
    01:00 +1°C° 0 mm 3 mps 766 mmHg 79%
    02:00 +1°C° 0 mm 3 mps 766 mmHg 78%
    03:00 +1°C° 0 mm 3 mps 765 mmHg 77%
    04:00 0°C° 0 mm 3 mps 765 mmHg 77%
    05:00 0°C° 0 mm 3 mps 765 mmHg 77%
    06:00 0°C° 0 mm 3 mps 765 mmHg 76%
    07:00 +1°C° 0 mm 3 mps 765 mmHg 74%
    08:00 +2°C° 0 mm 3 mps 765 mmHg 72%
    09:00 +3°C° 0 mm 3 mps 765 mmHg 69%
    10:00 +4°C° 0 mm 3 mps 764 mmHg 67%
    11:00 +5°C° 0 mm 3 mps 764 mmHg 65%
    12:00 +7°C° 0 mm 3 mps 764 mmHg 63%
    13:00 +7°C° 0.1 mm 3 mps 763 mmHg 65%
    14:00 +7°C° 0.1 mm 3 mps 763 mmHg 67%
    15:00 +7°C° 0.1 mm 3 mps 763 mmHg 68%
    16:00 +7°C° 0.3 mm 3 mps 762 mmHg 72%
    17:00 +5°C° 0.3 mm 3 mps 762 mmHg 76%
    18:00 +4°C° 0.3 mm 3 mps 762 mmHg 80%
    19:00 +4°C° 0.8 mm 4 mps 762 mmHg 81%
    20:00 +4°C° 0.8 mm 4 mps 761 mmHg 83%
    21:00 +4°C° 0.8 mm 4 mps 761 mmHg 85%
    22:00 +3°C° 1.2 mm 5 mps 761 mmHg 86%
    23:00 +3°C° 1.2 mm 5 mps 760 mmHg 88%

    20 February, Tuesday

    Time Temperature Precipitation Wind Pressure Humidity
    00:00 +3°C° 1.2 mm 5 mps 760 mmHg 90%
    01:00 +3°C° 0.9 mm 5 mps 759 mmHg 92%
    02:00 +5°C° 0.9 mm 4 mps 759 mmHg 93%
    03:00 +5°C° 0.9 mm 4 mps 758 mmHg 95%
    04:00 +5°C° 0.3 mm 4 mps 758 mmHg 95%
    05:00 +5°C° 0.3 mm 4 mps 758 mmHg 95%
    06:00 +5°C° 0.3 mm 4 mps 758 mmHg 95%
    07:00 +5°C° 0.1 mm 5 mps 759 mmHg 93%
    08:00 +5°C° 0.1 mm 5 mps 759 mmHg 90%
    09:00 +5°C° 0.1 mm 5 mps 759 mmHg 88%
    10:00 +5°C° 0.1 mm 5 mps 760 mmHg 86%
    11:00 +5°C° 0.1 mm 5 mps 760 mmHg 84%
    12:00 +4°C° 0.1 mm 6 mps 760 mmHg 82%
    13:00 +4°C° 0 mm 6 mps 761 mmHg 80%
    14:00 +3°C° 0 mm 6 mps 761 mmHg 79%
    15:00 +3°C° 0 mm 6 mps 761 mmHg 78%
    16:00 +3°C° 0 mm 6 mps 762 mmHg 79%
    17:00 +2°C° 0 mm 6 mps 762 mmHg 79%
    18:00 +2°C° 0 mm 6 mps 763 mmHg 80%
    19:00 +2°C° 0 mm 5 mps 764 mmHg 80%
    20:00 +1°C° 0 mm 5 mps 764 mmHg 80%
    21:00 +1°C° 0 mm 5 mps 765 mmHg 81%
    22:00 0°C° 0 mm 4 mps 765 mmHg 83%
    23:00 0°C° 0 mm 4 mps 766 mmHg 85%

    21 February, Wednesday

    Time Temperature Precipitation Wind Pressure Humidity
    00:00 -1°C° 0 mm 4 mps 766 mmHg 87%
    01:00 -1°C° 0 mm 4 mps 766 mmHg 88%
    02:00 -2°C° 0 mm 4 mps 766 mmHg 89%
    03:00 -1°C° 0 mm 3 mps 766 mmHg 90%
    04:00 -1°C° 0 mm 3 mps 766 mmHg 89%
    05:00 -1°C° 0 mm 3 mps 766 mmHg 89%
    06:00 -2°C° 0 mm 4 mps 766 mmHg 89%
    07:00 -2°C° 0 mm 4 mps 766 mmHg 83%
    08:00 -1°C° 0 mm 4 mps 766 mmHg 78%
    09:00 0°C° 0 mm 5 mps 766 mmHg 73%
    10:00 +1°C° 0 mm 5 mps 766 mmHg 68%
    11:00 +2°C° 0 mm 5 mps 766 mmHg 63%
    12:00 +2°C° 0 mm 5 mps 766 mmHg 58%
    13:00 +3°C° 0 mm 5 mps 766 mmHg 57%
    14:00 +3°C° 0 mm 6 mps 765 mmHg 57%
    15:00 +3°C° 0 mm 6 mps 765 mmHg 57%
    16:00 +2°C° 0 mm 6 mps 765 mmHg 62%
    17:00 0°C° 0 mm 5 mps 765 mmHg 68%
    18:00 -1°C° 0 mm 5 mps 766 mmHg 73%
    19:00 -1°C° 0 mm 5 mps 766 mmHg 75%
    20:00 -2°C° 0 mm 5 mps 766 mmHg 77%
    21:00 -3°C° 0 mm 6 mps 767 mmHg 80%
    22:00 -3°C° 0 mm 6 mps 767 mmHg 77%
    23:00 -2°C° 0 mm 5 mps 766 mmHg 74%

    22 February, Thursday

    Time Temperature Precipitation Wind Pressure Humidity
    00:00 -2°C° 0 mm 5 mps 766 mmHg 72%
    01:00 -2°C° 0 mm 5 mps 766 mmHg 71%
    02:00 -4°C° 0 mm 5 mps 766 mmHg 70%
    03:00 -4°C° 0 mm 5 mps 766 mmHg 70%
    04:00 -4°C° 0 mm 5 mps 766 mmHg 71%
    05:00 -5°C° 0 mm 5 mps 766 mmHg 72%
    06:00 -5°C° 0 mm 5 mps 766 mmHg 74%
    07:00 -4°C° 0 mm 6 mps 766 mmHg 69%
    08:00 -4°C° 0 mm 6 mps 766 mmHg 64%
    09:00 -3°C° 0 mm 7 mps 766 mmHg 58%
    10:00 -2°C° 0 mm 7 mps 766 mmHg 55%
    11:00 -1°C° 0 mm 7 mps 765 mmHg 51%
    12:00 0°C° 0 mm 7 mps 765 mmHg 47%
    13:00 0°C° 0 mm 7 mps 765 mmHg 47%
    14:00 0°C° 0 mm 7 mps 765 mmHg 47%
    15:00 0°C° 0 mm 7 mps 764 mmHg 48%
    16:00 -1°C° 0 mm 6 mps 765 mmHg 52%
    17:00 -2°C° 0 mm 6 mps 765 mmHg 57%
    18:00 -2°C° 0 mm 5 mps 765 mmHg 61%
    19:00 -4°C° 0 mm 5 mps 765 mmHg 64%
    20:00 -4°C° 0 mm 5 mps 766 mmHg 67%
    21:00 -5°C° 0 mm 5 mps 766 mmHg 70%
    22:00 -5°C° 0 mm 5 mps 766 mmHg 70%
    23:00 -5°C° 0 mm 5 mps 766 mmHg 70%
    Show more